Tracking 19570 objects as of 22-Feb-2019
HD Live streaming from Space Station
objects crossing your sky now

INTELSAT 602

Track INTELSAT 602 now!
INTELSAT 602 is classified as:


NORAD ID: 20315
Int'l Code: 1989-087A
Perigee: 36,141.5 km
Apogee: 36,163.6 km
Inclination: 12.7 °
Period: 1,454.5 minutes
Semi major axis: 42523 km
RCS: 19.9526 m2 (large)
Launch date: October 27, 1989
Source: International Telecommunications Satellite Organization (ITSO)
Launch site: FRENCH GUIANA (FRGUI)

Inclined orbit; Indian Ocean region; C-band and Ku-band broadcasting.
aabbcc
Your satellite tracking list
Your tracking list is empty




NASA's NSSDC Master Catalog

Two Line Element Set (TLE):
1 20315U 89087A   19052.01924116  .00000006  00000-0  00000+0 0  9999
2 20315  12.7478  27.0670 0002594 270.4359 262.0548  0.99005452104864
Source of the keplerian elements: AFSPC